Location: Lane
(33.5226°N, 79.8788°W)
Time: 13:55:37
(UTC+00:00)

Courier 1B Rocket - Visible Passes

Search period start: 03 October 2022 00:00
Search period end: 13 October 2022 00:00
Orbit: 920 x 1202 km, 28.2° (Epoch: 02 October)

Date Brightness Start Highest point End Pass type
(mag) Time Alt. Az. Time Alt. Az. Time Alt. Az.
03 Oct 6.0 01:42:07 10° WSW 01:46:10 36° SW 01:46:10 36° SW visible
04 Oct 5.3 00:41:02 10° WSW 00:47:28 50° S 00:48:55 43° SE visible
04 Oct 7.4 02:34:22 10° W 02:35:17 14° WSW 02:35:17 14° WSW visible
04 Oct 5.6 23:39:58 10° WSW 23:46:28 45° SSE 23:51:38 15° E visible
05 Oct 5.7 01:33:12 10° WSW 01:37:59 43° SW 01:37:59 43° SW visible
06 Oct 5.3 00:32:01 10° WSW 00:38:38 55° S 00:40:42 39° SE visible
06 Oct 7.2 02:25:35 10° W 02:27:04 17° WSW 02:27:04 17° WSW visible
06 Oct 5.5 23:30:49 10° WSW 23:37:37 52° S 23:43:24 13° E visible
07 Oct 5.6 01:24:19 10° W 01:29:46 47° SW 01:29:46 47° SW visible
08 Oct 5.3 00:23:03 10° WSW 00:29:48 55° S 00:32:27 34° ESE visible
08 Oct 7.1 02:16:51 10° W 02:18:49 19° WSW 02:18:49 19° WSW visible
08 Oct 5.5 23:21:46 10° WSW 23:28:44 56° S 23:35:09 10° ESE visible
09 Oct 5.6 01:15:29 10° W 01:21:31 45° SSW 01:21:31 45° SSW visible
10 Oct 5.5 00:14:07 10° W 00:20:56 53° S 00:24:14 28° SE visible
10 Oct 7.0 02:08:12 10° W 02:10:36 20° WSW 02:10:36 20° WSW visible
10 Oct 5.6 23:12:46 10° W 23:19:52 57° S 23:26:27 10° ESE visible
11 Oct 5.8 01:06:41 10° W 01:13:01 39° SSW 01:13:21 38° S visible
12 Oct 5.8 00:05:14 10° W 00:12:02 47° SSW 00:16:08 22° SE visible
12 Oct 7.0 01:59:47 10° WSW 02:02:30 19° SW 02:02:30 19° SW visible
12 Oct 5.8 23:03:48 10° W 23:10:58 54° S 23:17:37 10° ESE visible
